[[{"header":{"parameterUnit":"m.s-1","parameterCategory":1,"la1":30.2992,"la2":30.254,"lo1":-89.0895,"lo2":-89.0443,"dy":0.0025,"dx":0.0025,"nx":19,"ny":19,"refTime":"2026-03-07T03:00:00:Z","depth":0,"parameterNumber":2,"parameterNumberName":"U-component_of_WINDS"},"data":[0,0,0,-3.6138,-3.6141,-3.6248,-3.6248,-3.6389,-3.639,0,0,0,0,0,0,0,0,0,0,0,-3.6109,-3.611,-3.6138,-3.6141,-3.6247,-3.6248,-3.6389,-3.639,0,0,0,0,0,0,0,0,0,0,0,-3.6108,-3.611,-3.6111,-3.6141,-3.6247,-3.6248,-3.6389,-3.6306,0,0,0,0,0,0,0,0,0,0,-3.6202,-3.6177,-3.6109,-3.6111,-3.6142,-3.6247,-3.6248,-3.6302,-3.6312,-3.6343,0,-3.637,0,-3.6383,-3.64,-3.6401,0,0,0,-3.6139,-3.6169,-3.6196,-3.6111,-3.6143,-3.6247,-3.6199,-3.6307,-3.6318,-3.6355,-3.6372,-3.6377,-3.6385,-3.6401,-3.6402,-3.6585,-3.6586,0,0,-3.6133,-3.6129,-3.6189,-3.6203,-3.6186,-3.6195,-3.6202,-3.6314,-3.6332,-3.6373,-3.6381,-3.6387,-3.6402,-3.6403,-3.6584,-3.6585,0,0,0,-3.6117,-3.6125,-3.6149,-3.6197,-3.6216,-3.6199,-3.6206,-3.6328,-3.6336,-3.6382,-3.6389,-3.6403,-3.6405,-3.6583,-3.6585,-3.6625,0,0,0,-3.6114,-3.6116,-3.6147,-3.6145,-3.6214,-3.6273,-3.6218,-3.6328,-3.6341,-3.6388,-3.6403,-3.6406,-3.6582,-3.6584,-3.6622,-3.6644,0,0,0,-3.6101,-3.6114,-3.6131,-3.6145,-3.6191,-3.6271,-3.6286,-3.6331,-3.6345,-3.6401,-3.6406,-3.6581,-3.6584,-3.6619,-3.6639,-3.669,0,0,0,-3.6086,-3.6165,-3.6131,-3.6223,-3.619,-3.6296,-3.6285,-3.6365,-3.6418,-3.6404,-3.6582,-3.6584,-3.6618,-3.6636,-3.6687,-3.673,-3.6748,0,0,-3.6183,-3.6177,-3.6231,-3.6204,-3.6315,-3.628,-3.6398,-3.645,-3.646,-3.6543,-3.6548,-3.6623,-3.6639,-3.6689,-3.6856,-3.687,0,0,0,-3.626,-3.6299,-3.6329,-3.6379,-3.6422,-3.646,-3.6495,-3.6515,-3.6586,-3.6502,-3.6656,-3.6666,-3.6696,-3.6716,-3.6729,-3.6754,-3.6595,-3.6594,-3.6594,-3.6389,-3.6398,-3.6488,-3.651,-3.6559,-3.6596,-3.6636,-3.6669,-3.6663,-3.67,-3.6723,-3.6824,-3.6848,-3.6857,-3.6883,-3.6749,-3.675,-3.675,-3.675,-3.6531,-3.6586,-3.6578,-3.6662,-3.6672,-3.6743,-3.6782,-3.6776,-3.6844,-3.6807,-3.6833,-3.6789,-3.6873,-3.6896,-3.6753,-3.6753,-3.6752,-3.6752,-3.6752,-3.6613,-3.6641,-3.6665,-3.6739,-3.6796,-3.6817,-3.6882,-3.6889,-3.6896,-3.6923,-3.6947,-3.6947,-3.6945,-3.6935,-3.6935,-3.6936,-3.6936,-3.6936,-3.6936,-3.6688,-3.6714,-3.6768,-3.6822,-3.6855,-3.6901,-3.6941,-3.6974,-3.7013,-3.7013,-3.7013,-3.7003,-3.688,-3.6848,-3.6942,-3.6941,-3.694,-3.6939,-3.6939,-3.6823,-3.6794,-3.6877,-3.6911,-3.6975,-3.7031,-3.7041,-3.7109,-3.7138,-3.717,-3.7156,-3.7066,-3.7059,-3.7049,-3.7022,-3.7155,-3.7155,-3.7155,-3.7155,-3.689,-3.6889,-3.6976,-3.703,-3.7084,-3.7101,-3.7196,-3.7229,-3.7258,-3.7277,-3.726,-3.7226,-3.7216,-3.7215,-3.7201,-3.7176,-3.7346,-3.7346,-3.7346,-3.6973,-3.6977,-3.7055,-3.7083,-3.7135,-3.7179,-3.7268,-3.7331,-3.7359,-3.7354,-3.7291,-3.7283,-3.7228,-3.7211,-3.7199,-3.7179,-3.7132,0,0]},{"header":{"parameterUnit":"m.s-1","parameterCategory":1,"la1":30.2992,"la2":30.254,"lo1":-89.0895,"lo2":-89.0443,"dy":0.0025,"dx":0.0025,"nx":19,"ny":19,"refTime":"2026-03-07T03:00:00:Z","depth":0,"parameterNumber":3,"parameterNumberName":"V-component_of_WINDS"},"data":[0,0,0,1.9481,1.9482,1.9552,1.9552,1.9636,1.9637,0,0,0,0,0,0,0,0,0,0,0,1.9456,1.9456,1.9481,1.9482,1.9552,1.9552,1.9636,1.9637,0,0,0,0,0,0,0,0,0,0,0,1.9455,1.9456,1.9456,1.9483,1.9552,1.9552,1.9636,1.9586,0,0,0,0,0,0,0,0,0,0,1.9519,1.9491,1.9456,1.9456,1.9483,1.9552,1.9552,1.9583,1.9589,1.9602,0,1.9612,0,1.9626,1.9642,1.9643,0,0,0,1.9486,1.9486,1.9509,1.9456,1.9483,1.9552,1.9522,1.9586,1.9593,1.9609,1.9613,1.9616,1.9627,1.9643,1.9643,1.971,1.971,0,0,1.9482,1.9466,1.9505,1.9513,1.95,1.9519,1.9524,1.959,1.9593,1.9614,1.9619,1.9629,1.9643,1.9644,1.9709,1.971,0,0,0,1.9468,1.9463,1.9484,1.9509,1.9522,1.9521,1.9526,1.9591,1.9599,1.962,1.963,1.9644,1.9645,1.9709,1.9709,1.9702,0,0,0,1.9466,1.9455,1.9482,1.9473,1.9521,1.9557,1.9525,1.9594,1.9602,1.9629,1.9644,1.9645,1.9709,1.9709,1.9702,1.9701,0,0,0,1.9453,1.9453,1.9462,1.9472,1.9502,1.9556,1.9569,1.9596,1.9608,1.9643,1.9646,1.9709,1.9709,1.9702,1.9701,1.9715,0,0,0,1.9433,1.9453,1.9462,1.9488,1.9501,1.9551,1.9568,1.9606,1.9634,1.9644,1.9709,1.9709,1.9702,1.9701,1.9715,1.9725,1.9727,0,0,1.9449,1.9454,1.9471,1.9481,1.9525,1.9541,1.9585,1.9626,1.9644,1.9687,1.9689,1.9702,1.9701,1.9715,1.9745,1.9746,0,0,0,1.9471,1.9483,1.9498,1.9525,1.9557,1.9586,1.9622,1.9639,1.9676,1.9663,1.9711,1.9711,1.972,1.9726,1.9727,1.9737,1.9711,1.9711,1.9711,1.9469,1.9492,1.9523,1.9556,1.9582,1.9621,1.9645,1.9673,1.9687,1.9699,1.9712,1.9727,1.9732,1.9734,1.9744,1.9718,1.9718,1.9718,1.9718,1.9495,1.9517,1.9539,1.9576,1.9601,1.9634,1.9673,1.9683,1.9718,1.9718,1.9727,1.9726,1.9735,1.9745,1.9718,1.9718,1.9718,1.9718,1.9718,1.9497,1.9512,1.9532,1.9575,1.9607,1.964,1.9673,1.9695,1.9715,1.9724,1.9742,1.9742,1.9746,1.9731,1.9731,1.9731,1.9731,1.9731,1.9732,1.9491,1.9514,1.9539,1.9578,1.96,1.9632,1.9674,1.9697,1.9728,1.9741,1.9741,1.9756,1.9731,1.9725,1.9732,1.9732,1.9732,1.9732,1.9732,1.9509,1.9509,1.9548,1.957,1.962,1.9652,1.968,1.9725,1.9747,1.9763,1.9778,1.9755,1.9762,1.9761,1.9756,1.9771,1.9771,1.9771,1.9771,1.9511,1.9517,1.9563,1.9598,1.9635,1.9666,1.9712,1.9746,1.9782,1.9798,1.9799,1.9794,1.9792,1.98,1.9798,1.9794,1.9819,1.9819,1.9819,1.9524,1.9536,1.9569,1.9605,1.9646,1.9682,1.9727,1.9768,1.9808,1.9822,1.9811,1.9809,1.9802,1.9798,1.981,1.9806,1.9799,0,0]}]]